Regional Weather Roundup
Issued by NWS

Home | Current Version | Previous Version | Graphics & Text | Print | Product List | Glossary On
Versions: 1 2 3 4 5 6 7 8 9 10 11 12 13 14 15 16 17 18 19 20 21 22 23 24 25 26 27 28 29 30 31 32 33 34 35 36 37 38 39 40 41 42 43 44 45 46 47 48 49 50
000
ASUS43 KMKX 050511
RWRWI

WISCONSIN REGIONAL WEATHER ROUNDUP
NATIONAL WEATHER SERVICE MILWAUKEE/SULLIVAN WI
1200 AM CDT THU MAY 05 2016

NOTE: "FAIR" INDICATES FEW OR NO CLOUDS BELOW 12,000 FEET WITH NO
SIGNIFICANT WEATHER AND/OR OBSTRUCTIONS TO VISIBILITY.

WIZ001-002-006>008-014>016-023>028-050600-
NORTHWEST WISCONSIN

CITY           SKY/WX    TMP DP  RH WIND       PRES   REMARKS
SUPERIOR ARPT  CLEAR     32  32  98 CALM      30.01R
ASHLAND        CLOUDY    31  30  96 CALM      30.01S
HAYWARD        CLOUDY    34  28  79 CALM      29.99F
SIREN          CLEAR     38  26  62 CALM      29.99F
CUMBERLAND     CLEAR     41  30  65 CALM      29.99F
RICE LAKE      CLEAR     40  32  73 CALM      30.01S
CHETEK         CLEAR     41  29  61 SE3       30.00S
LADYSMITH      CLEAR     38  30  73 CALM      30.00F
EAU CLAIRE     CLEAR     44  28  53 N3        29.99S
MENOMONIE      CLEAR     43  22  43 CALM      30.00S
NEW RICHMOND   CLEAR     46  26  45 CALM      30.00R
OSCEOLA        CLEAR     42  32  68 CALM      30.02R
$$

WIZ003>005-009-010-017-018-050600-
NORTH CENTRAL WISCONSIN

CITY           SKY/WX    TMP DP  RH WIND       PRES   REMARKS
MANITOWISH WTR CLEAR     31  31 100 CALM      29.98S FOG
ARBOR VITAE    CLEAR     36  31  82 CALM      29.98S
WOODRUFF       CLEAR     36  31  82 CALM      29.98S
RHINELANDER    CLEAR     36  30  79 CALM      29.98S
EAGLE RIVER    CLEAR     30  30  99 CALM      29.97S
LAND O LAKES   CLEAR     30  29  97 CALM      30.00R
PHILLIPS       CLEAR     33  30  90 CALM      29.98F
TOMAHAWK       CLEAR     30  28  92 CALM      29.99S
MEDFORD        CLEAR     39  31  73 N3        29.98S
MERRILL        CLEAR     34  31  91 CALM      29.99S
$$

WIZ029-030-035-036-043>047-050600-
CENTRAL WISCONSIN

CITY           SKY/WX    TMP DP  RH WIND       PRES   REMARKS
WAUSAU         CLEAR     43  32  65 N3        29.96S
MOSINEE        CLEAR     41  32  70 N5        29.98F
MARSHFIELD     CLEAR     44  31  60 N7        29.97S
STEVENS POINT  CLEAR     39  30  71 CALM      29.98S
WAUPACA        CLEAR     44  33  65 N5        29.98R
WAUTOMA        CLEAR     44  32  62 N5        29.98R
WISC RAPIDS    PTCLDY    43  30  60 NE6       29.98S
CAMP DOUGLAS   CLEAR     40  37  92 NW3       29.97S
$$

WIZ011>013-019>022-031-037>040-048>050-050600-
NORTHEAST WISCONSIN

CITY           SKY/WX    TMP DP  RH WIND       PRES   REMARKS
ANTIGO         CLEAR     34  31  90 CALM      29.97S
SHAWANO        CLEAR     41  33  72 N7        29.99R
OCONTO         CLEAR     37  32  81 N6        29.97S WCI  33
STURGEON BAY   CLEAR     39  30  70 N13       29.97S WCI  32
GREEN BAY      CLEAR     39  32  76 N9        29.97R WCI  33
MANITOWOC      CLEAR     40  32  73 NW12G22   29.95S WCI  33
APPLETON       CLEAR     36  30  80 N8        29.95R WCI  29
CLINTONVILLE   CLEAR     41  32  70 N8        29.98R
OSHKOSH        CLEAR     42  32  67 N14       29.95S
$$

WIZ032>034-041-042-053>061-050600-
SOUTHWEST WISCONSIN

CITY           SKY/WX    TMP DP  RH WIND       PRES   REMARKS
LA CROSSE      CLEAR     51  29  42 NE6       29.98R
SPARTA         CLEAR     37  30  75 CALM      29.99S
VIROQUA        CLEAR     46  32  59 NE12      29.97R
BOSCOBEL       CLEAR     50  31  48 NE3       29.97R
PRAIRIE DU CHI CLEAR     50  24  35 CALM      29.97R
PLATTEVILLE    CLEAR     47  34  61 N12       29.94S
$$

WIZ056-057-062-063-064-067-068-050600-
SOUTH CENTRAL WISCONSIN

CITY           SKY/WX    TMP DP  RH WIND       PRES   REMARKS
REEDSBURG      CLEAR     46  32  58 N8        29.96R
BARABOO/DELLS  CLEAR     45  31  59 N5        29.96R
LONE ROCK      CLEAR     49  32  52 N8        29.97R
MINERAL POINT  PTCLDY    46  32  57 N10       29.94S
MADISON        CLEAR     41  35  79 NE7       29.94R
MIDDLETON      CLEAR     44  36  72 NE5       29.95R
WATERTOWN      CLEAR     42  34  75 N9        29.93S
MONROE         CLEAR     43  36  75 NE10      29.93R
JANESVILLE     CLEAR     45  36  70 N5        29.93R
$$

WIZ051-052-058>065-066-070>072-050600-
SOUTHEAST WISCONSIN

CITY           SKY/WX    TMP DP  RH WIND       PRES   REMARKS
MILWAUKEE      MOCLDY    41  35  79 N13       29.92S
WAUKESHA       CLEAR     36  32  87 N5        29.93S WCI  32
MILWAUKEE/TIMM PTCLDY    37  32  81 N9        29.93S WCI  31
RACINE         CLOUDY    42  34  73 N17G28    29.92S
BURLINGTON     CLEAR     37  33  85 N5        29.92S WCI  33
KENOSHA        MOCLDY    41  33  73 N10G22    29.90S
FOND DU LAC    CLEAR     43  33  68 N16       29.96R
SHEBOYGAN      CLEAR     40  31  70 N10       29.94R WCI  33
WEST BEND      CLEAR     39  32  75 N9        29.93R WCI  33
JUNEAU         CLEAR     40  34  79 N8        29.95S WCI  34
$$

LSZ147-162-050600-
LAKE SUPERIOR

STATION/POSITION TIME  TEMP    WIND        PRES    WAVE
                       AIR SEA DIR/SP/G            HT/PER
                 (UTC) (F)     (DEG/KT/KT) (MB)    (FT/S)
W MID LAKE BUOY  0450   36 36   20/  2/  4 1017.4R   1/ 5
DEVILS ISLAND    0400   41     130/  6/  6 1016.9F
PORT WING        0230   39      CALM  /  3 1016.3
SAXON HARBOR     0400   34     190/  3/  4 1015.6
$$

LMZ867-665-643>646-050600-
LAKE MICHIGAN

STATION/POSITION TIME  TEMP    WIND        PRES    WAVE
                       AIR SEA DIR/SP/G            HT/PER
                 (UTC) (F)     (DEG/KT/KT) (MB)    (FT/S)
CHAMBERS ISLAND  0400   41     340/ 13/ 16 1014.6S
N MID LAKE BUOY  0450   39 38  340/ 16/ 19 1013.4S   3/ 5
NORTHPORT PIER   0422   40     340/ 14/ 19 1014.2S
ALGOMA LAKESHORE 0415          330/ 11/ 16   N/A
KEWAUNEE LAKESHO 0400   40     350/ 11/ 14 1013.4S
SHEBOYGAN LAKESH 0500   42     360/ 21/ 23 1014.4R
PORT WASHINGTON  0400   40     350/  4/  7 1014.2
S MID LAKE BUOY  0450   40 40   10/ 27/ 35 1010.2F  10/ 8
KENOSHA   LAKESH 0500   44      10/ 24/ 32 1012.2S
$$

TC  - TEMPERATURE IN CELSIUS
VSB - VISIBILITY IN STATUTE MILES
WCI - WIND CHILL INDEX
HX  - HEAT INDEX




USA.gov is the U.S. government's official web portal to all federal, state and local government web resources and services.